Weather History for KSHD - January, 2013

Change the Weather History Date:

Sunday, January 20, 2013

  Actual Average Record
Temperature  
Mean Temperature 46 °F -  
Max Temperature 57 °F 40 °F 66 °F (2006)
Min Temperature 35 °F 22 °F 3 °F (1998)
Degree Days  
Heating Degree Days 19    
Moisture  
Dew Point 19 °F    
Average Humidity 36    
Maximum Humidity 57    
Minimum Humidity 21    
Precipitation  
Precipitation 0.00 in - - ()
Sea Level Pressure  
Sea Level Pressure 29.97 in    
Wind  
Wind Speed 9 mph (SW)    
Max Wind Speed 20 mph    
Max Gust Speed 29 mph    
Visibility 10 miles    
Events      
Averages and records for this station are not official NWS values.
T = Trace of Precipitation, MM = Missing Value Source: NWS Daily Summary

Daily Weather History Graph

Daily Weather History Graph

Search for Another Location

Airport or City:

Trip Planner

Search our weather history database for the weather conditions in past years. The results will help you decide how hot, cold, wet, or windy it might be!

Date:

Astronomy

Jan. 20, 2013 Rise Set
Actual Time 7:28 AM EST 5:25 PM EST
Civil Twilight 7:00 AM EST 5:53 PM EST
Nautical Twilight 6:27 AM EST 6:25 PM EST
Astronomical Twilight 5:56 AM EST 6:57 PM EST
Moon 12:24 PM EST (1/20) 1:59 AM EST (1/20)
Length of Visible Light 10h 53m
Length of Day
9h 56m
Waxing Gibbous, 66% of the Moon is Illuminated
Jan 20
Waxing Gibbous
Jan 26
Full
Feb 3
Last Quarter
Feb 10
New
Feb 17
First Quarter

Hourly Weather History & Observations

Time (EST) Temp. Windchill Dew Point Humidity Pressure Visibility Wind Dir Wind Speed Gust Speed Precip Events Conditions
12:15 AM 43.3 °F 37.2 °F 26.1 °F 51% 29.99 in 10.0 mi South 11.5 mph - N/A   Clear
12:35 AM 43.2 °F 37.0 °F 26.4 °F 52% 29.99 in 10.0 mi South 11.5 mph - N/A   Clear
12:55 AM 42.8 °F 37.0 °F 26.6 °F 53% 29.98 in 10.0 mi South 10.4 mph - N/A   Clear
1:15 AM 42.1 °F 36.1 °F 26.6 °F 54% 29.97 in 10.0 mi South 10.4 mph - N/A   Clear
1:35 AM 42.3 °F 36.8 °F 26.6 °F 54% 29.97 in 10.0 mi South 9.2 mph - N/A   Clear
1:55 AM 42.6 °F 37.2 °F 26.2 °F 52% 29.96 in 10.0 mi South 9.2 mph - N/A   Clear
2:15 AM 42.3 °F 36.8 °F 25.7 °F 52% 29.96 in 10.0 mi SSW 9.2 mph - N/A   Clear
2:35 AM 42.6 °F 37.2 °F 25.0 °F 50% 29.96 in 10.0 mi SSW 9.2 mph - N/A   Clear
2:55 AM 42.6 °F 38.4 °F 24.3 °F 48% 29.96 in 10.0 mi SSW 6.9 mph - N/A   Clear
3:15 AM 42.4 °F - 23.7 °F 48% 29.95 in 10.0 mi Calm Calm - N/A   Clear
3:35 AM 39.0 °F - 25.0 °F 57% 29.94 in 10.0 mi Calm Calm - N/A   Clear
3:55 AM 39.9 °F 35.1 °F 25.3 °F 56% 29.93 in 10.0 mi SSE 6.9 mph - N/A   Clear
4:15 AM 40.1 °F 36.1 °F 24.8 °F 54% 29.92 in 10.0 mi SSE 5.8 mph - N/A   Clear
4:35 AM 40.5 °F 38.4 °F 24.3 °F 52% 29.91 in 10.0 mi SE 3.5 mph - N/A   Clear
4:55 AM 42.4 °F 38.1 °F 23.0 °F 46% 29.91 in 10.0 mi SW 6.9 mph - N/A   Clear
5:15 AM 43.9 °F 38.8 °F 23.9 °F 45% 29.91 in 10.0 mi SW 9.2 mph - N/A   Clear
5:35 AM 45.7 °F 41.0 °F 24.3 °F 43% 29.91 in 10.0 mi SW 9.2 mph - N/A   Clear
5:55 AM 45.9 °F 40.8 °F 24.4 °F 43% 29.91 in 10.0 mi SSW 10.4 mph - N/A   Clear
6:15 AM 45.5 °F 41.3 °F 25.0 °F 45% 29.90 in 10.0 mi South 8.1 mph - N/A   Clear
6:35 AM 45.3 °F 40.6 °F 25.5 °F 46% 29.91 in 10.0 mi South 9.2 mph - N/A   Clear
6:55 AM 45.3 °F 41.1 °F 26.1 °F 47% 29.91 in 10.0 mi South 8.1 mph - N/A   Clear
7:15 AM 45.7 °F 40.6 °F 26.4 °F 47% 29.91 in 10.0 mi SSE 10.4 mph - N/A   Clear
7:35 AM 45.7 °F 40.6 °F 26.8 °F 48% 29.91 in 10.0 mi SSE 10.4 mph - N/A   Clear
7:55 AM 46.0 °F 41.4 °F 27.1 °F 48% 29.91 in 10.0 mi SSE 9.2 mph - N/A   Clear
8:15 AM 46.8 °F - 27.5 °F 47% 29.92 in 10.0 mi SSE 6.9 mph - N/A   Clear
8:35 AM 47.5 °F - 28.2 °F 47% 29.92 in 10.0 mi South 5.8 mph - N/A   Clear
8:55 AM 49.3 °F - 28.8 °F 45% 29.93 in 10.0 mi SW 11.5 mph 16.1 mph N/A   Clear
9:15 AM 50.0 °F - 28.6 °F 44% 29.93 in 10.0 mi SW 11.5 mph 20.7 mph N/A   Clear
9:35 AM 50.9 °F - 28.6 °F 42% 29.94 in 10.0 mi SW 9.2 mph 18.4 mph N/A   Clear
9:55 AM 51.8 °F - 28.6 °F 41% 29.94 in 10.0 mi SW 9.2 mph - N/A   Clear
10:15 AM 52.7 °F - 27.9 °F 38% 29.95 in 10.0 mi WSW 9.2 mph 20.7 mph N/A   Clear
10:35 AM 53.2 °F - 27.9 °F 38% 29.94 in 10.0 mi SW 12.7 mph 20.7 mph N/A   Clear
10:55 AM 54.1 °F - 27.7 °F 36% 29.94 in 10.0 mi WSW 13.8 mph 19.6 mph N/A   Clear
11:15 AM 54.9 °F - 26.4 °F 33% 29.93 in 10.0 mi WSW 10.4 mph 21.9 mph N/A   Clear
11:35 AM 55.4 °F - 25.2 °F 31% 29.93 in 10.0 mi WSW 15.0 mph 24.2 mph N/A   Clear
11:55 AM 56.5 °F - 24.8 °F 30% 29.91 in 10.0 mi WSW 17.3 mph 25.3 mph N/A   Clear
12:15 PM 56.7 °F - 20.7 °F 25% 29.91 in 10.0 mi West 15.0 mph 23.0 mph N/A   Clear
12:35 PM 57.2 °F - 19.4 °F 23% 29.90 in 10.0 mi West 17.3 mph 28.8 mph N/A   Clear
12:55 PM 57.2 °F - 18.9 °F 22% 29.91 in 10.0 mi West 16.1 mph 21.9 mph N/A   Clear
1:15 PM 56.7 °F - 19.9 °F 24% 29.91 in 10.0 mi West 13.8 mph 21.9 mph N/A   Clear
1:35 PM 56.8 °F - 19.6 °F 23% 29.91 in 10.0 mi West 16.1 mph 23.0 mph N/A   Clear
1:55 PM 56.1 °F - 20.1 °F 25% 29.92 in 10.0 mi West 19.6 mph 28.8 mph N/A   Clear
2:15 PM 55.6 °F - 19.2 °F 24% 29.92 in 10.0 mi West 15.0 mph 24.2 mph N/A   Clear
2:55 PM 55.4 °F - 17.4 °F 23% 29.94 in 10.0 mi West 9.2 mph 24.2 mph N/A   Clear
3:15 PM 55.2 °F - 18.0 °F 23% 29.94 in 10.0 mi West 17.3 mph 20.7 mph N/A   Clear
3:35 PM 54.5 °F - 16.9 °F 23% 29.95 in 10.0 mi West 17.3 mph 23.0 mph N/A   Clear
3:55 PM 54.0 °F - 16.3 °F 23% 29.95 in 10.0 mi West 15.0 mph 19.6 mph N/A   Clear
4:15 PM 53.6 °F - 16.0 °F 23% 29.96 in 10.0 mi West 10.4 mph 17.3 mph N/A   Clear
4:35 PM 52.7 °F - 14.5 °F 22% 29.97 in 10.0 mi West 9.2 mph - N/A   Clear
4:55 PM 51.1 °F - 11.7 °F 21% 29.98 in 10.0 mi WNW 11.5 mph 17.3 mph N/A   Clear
5:15 PM 48.7 °F - 11.3 °F 22% 29.99 in 10.0 mi WNW 5.8 mph - N/A   Clear
5:35 PM 46.4 °F - 11.3 °F 24% 30.00 in 10.0 mi Calm Calm - N/A   Clear
5:55 PM 45.5 °F - 12.7 °F 27% 30.01 in 10.0 mi Calm Calm - N/A   Clear
6:15 PM 43.3 °F - 11.5 °F 27% 30.02 in 10.0 mi Calm Calm - N/A   Clear
6:35 PM 43.5 °F - 10.8 °F 26% 30.02 in 10.0 mi Calm Calm - N/A   Clear
6:55 PM 41.5 °F - 9.0 °F 26% 30.03 in 10.0 mi Calm Calm - N/A   Clear
7:15 PM 39.6 °F - 10.9 °F 31% 30.04 in 10.0 mi Calm Calm - N/A   Clear
7:35 PM 38.5 °F - 11.3 °F 33% 30.05 in 10.0 mi Calm Calm - N/A   Clear
7:55 PM 38.8 °F - 9.7 °F 30% 30.05 in 10.0 mi Calm Calm - N/A   Clear
8:15 PM 37.9 °F - 7.7 °F 29% 30.05 in 10.0 mi Calm Calm - N/A   Clear
8:35 PM 37.8 °F 34.2 °F 6.8 °F 28% 30.05 in 10.0 mi South 4.6 mph - N/A   Clear
8:55 PM 37.2 °F 33.6 °F 6.6 °F 28% 30.05 in 10.0 mi South 4.6 mph - N/A   Clear
9:15 PM 39.7 °F 35.6 °F 3.6 °F 22% 30.05 in 10.0 mi SSW 5.8 mph - N/A   Clear
9:35 PM 37.2 °F 32.6 °F 5.5 °F 27% 30.05 in 10.0 mi SW 5.8 mph - N/A   Clear
9:55 PM 37.4 °F 33.8 °F 5.2 °F 26% 30.05 in 10.0 mi WSW 4.6 mph - N/A   Clear
10:15 PM 39.0 °F - 3.7 °F 23% 30.06 in 10.0 mi Calm Calm - N/A   Clear
10:35 PM 37.6 °F 33.1 °F 5.0 °F 26% 30.07 in 10.0 mi SW 5.8 mph - N/A   Clear
10:55 PM 38.7 °F 36.3 °F 4.3 °F 24% 30.06 in 10.0 mi SW 3.5 mph - N/A   Clear
11:15 PM 37.9 °F 35.5 °F 4.8 °F 25% 30.06 in 10.0 mi SW 3.5 mph - N/A   Clear
11:35 PM 35.8 °F 31.9 °F 6.4 °F 29% 30.06 in 10.0 mi WSW 4.6 mph - N/A   Clear
11:55 PM 36.9 °F 34.3 °F 6.1 °F 28% 30.05 in 10.0 mi WSW 3.5 mph - N/A   Clear